Taba International, Egypt

12:41 PM EET on May 26, 2018 (GMT +0200)
Taba International

Weather History for HETB - December, 2012

Change the Weather History Date:

Friday, December 28, 2012

  Actual Average Record
Temperature  
Mean Temperature 50 °F -  
Max Temperature 64 °F - - ()
Min Temperature 37 °F - - ()
Degree Days  
Heating Degree Days 14    
Moisture  
Dew Point 38 °F    
Average Humidity 68    
Maximum Humidity 100    
Minimum Humidity 32    
Precipitation  
Precipitation 0.00 in - - ()
Sea Level Pressure  
Sea Level Pressure 30.11 in    
Wind  
Wind Speed 0 mph ()    
Max Wind Speed 0 mph    
Max Gust Speed -    
Visibility 4.6 miles    
Events      
T = Trace of Precipitation, MM = Missing Value Source: Averaged Metar Reports

Daily Weather History Graph

Daily Weather History Graph

Search for Another Location

Airport or City:

Astronomy

Dec. 28, 2012 Rise Set
Actual Time 6:34 AM EET 4:50 PM EET
Civil Twilight 6:08 AM EET 5:16 PM EET
Nautical Twilight 5:38 AM EET 5:46 PM EET
Astronomical Twilight 5:09 AM EET 6:15 PM EET
Moon 5:04 PM EET (12/28) 6:17 AM EET (12/28)
Length of Visible Light 11h 08m
Length of Day
10h 15m
Full, 100% of the Moon is Illuminated
Dec 28
Full
Dec 28
Full
Jan 5
Last Quarter
Jan 11
New
Jan 19
First Quarter

Hourly Weather History & Observations

Time (EET) Temp. Dew Point Humidity Pressure Visibility Wind Dir Wind Speed Gust Speed Precip Events Conditions
12:00 AM 46.4 °F 37.4 °F 71% 30.18 in - Calm Calm - N/A   Clear
1:00 AM 42.8 °F 39.2 °F 87% 30.15 in - Calm Calm - N/A   Clear
2:00 AM 42.8 °F 39.2 °F 87% 30.15 in 6.2 mi Calm Calm - N/A   Partly Cloudy
3:00 AM 42.8 °F 39.2 °F 87% 30.15 in 6.2 mi Calm Calm - N/A   Partly Cloudy
4:00 AM 41.0 °F 41.0 °F 100% 30.12 in 6.2 mi Calm Calm - N/A   Partly Cloudy
5:00 AM 41.0 °F 41.0 °F 100% 30.12 in 6.2 mi Calm Calm - N/A   Partly Cloudy
6:00 AM 39.2 °F 39.2 °F 100% 30.12 in 6.2 mi Calm Calm - N/A   Partly Cloudy
7:00 AM 37.4 °F 37.4 °F 100% 30.15 in 1.2 mi Calm Calm - N/A   Partly Cloudy
8:00 AM 41.0 °F 41.0 °F 100% 30.15 in 1.2 mi Calm Calm - N/A   Partly Cloudy
9:00 AM 46.4 °F 46.4 °F 100% 30.15 in 2.5 mi Calm Calm - N/A   Partly Cloudy
10:00 AM 50.0 °F 48.2 °F 94% 30.15 in 3.7 mi Calm Calm - N/A   Partly Cloudy
11:00 AM 55.4 °F 42.8 °F 63% 30.12 in 6.2 mi Calm Calm - N/A   Partly Cloudy
12:00 PM 60.8 °F 39.2 °F 45% 30.09 in - Calm Calm - N/A   Clear
1:00 PM 64.4 °F 33.8 °F 32% 30.06 in - Calm Calm - N/A   Clear
2:00 PM 64.4 °F 33.8 °F 32% 30.06 in - Calm Calm - N/A   Clear
3:00 PM 64.4 °F 33.8 °F 32% 30.06 in - Calm Calm - N/A   Clear
4:10 PM 64.4 °F 33.8 °F 32% 30.06 in - Calm Calm - N/A   Clear
5:00 PM 60.8 °F 33.8 °F 36% 30.06 in - Calm Calm - N/A   Clear
6:00 PM 55.4 °F 32.0 °F 41% 30.09 in - Calm Calm - N/A   Clear
7:00 PM 53.6 °F 33.8 °F 47% 30.09 in - Calm Calm - N/A   Clear
8:00 PM 51.8 °F 37.4 °F 58% 30.09 in - Calm Calm - N/A   Clear
9:00 PM 50.0 °F 37.4 °F 62% 30.09 in - Calm Calm - N/A   Clear
10:00 PM 46.4 °F 35.6 °F 66% 30.09 in - Calm Calm - N/A   Clear
11:00 PM 46.4 °F 37.4 °F 71% 30.09 in - Calm Calm - N/A   Clear